Location: Newark
(40.3500°N, 15.2333°E)
Time: 23:01:42
(UTC+00:00)

Envisat - Visible Passes

Search period start: 27 January 2021 00:00
Search period end: 06 February 2021 00:00
Orbit: 764 x 766 km, 98.1° (Epoch: 27 January)

Date Brightness Start Highest point End Pass type
(mag) Time Alt. Az. Time Alt. Az. Time Alt. Az.
27 Jan 6.0 03:25:45 10° ENE 03:28:13 13° E 03:30:40 10° ESE visible
27 Jan 2.9 05:02:38 10° N 05:07:42 68° WNW 05:12:43 10° SSW visible
28 Jan 3.8 04:25:54 10° NNE 04:30:53 54° E 04:35:51 10° S visible
28 Jan 6.2 17:21:49 10° WSW 17:24:16 13° W 17:26:44 10° WNW visible
29 Jan 5.3 03:49:47 10° NE 03:53:52 24° E 03:57:57 10° SSE visible
29 Jan 3.5 05:28:18 10° N 05:32:59 38° WNW 05:37:38 10° SW visible
29 Jan 5.2 16:42:40 10° SSW 16:47:07 30° W 16:51:36 10° NW visible
30 Jan 6.3 03:16:14 10° E 03:16:40 10° E 03:17:06 10° E visible
30 Jan 2.9 04:51:12 10° NNE 04:56:18 85° WNW 05:01:23 10° SSW visible
31 Jan 4.3 04:14:36 10° NNE 04:19:26 42° E 04:24:14 10° S visible
31 Jan 6.0 17:09:25 10° SW 17:12:44 17° W 17:16:04 10° NW visible
01 Feb 5.6 03:38:48 10° NE 03:42:22 19° E 03:45:55 10° SE visible
01 Feb 3.2 05:16:44 10° N 05:21:37 49° WNW 05:26:29 10° SW visible
02 Feb 3.2 04:39:47 10° NNE 04:44:53 76° E 04:49:58 10° S visible
03 Feb 4.7 04:03:23 10° NNE 04:07:58 33° E 04:12:31 10° SSE visible
03 Feb 5.9 16:57:19 10° SW 17:01:13 22° W 17:05:08 10° NW visible
04 Feb 6.0 03:28:01 10° ENE 03:30:50 15° E 03:33:38 10° SE visible
04 Feb 3.0 05:05:14 10° N 05:10:16 62° WNW 05:15:15 10° SSW visible
05 Feb 3.6 04:28:26 10° NNE 04:33:28 59° E 04:38:27 10° S visible
05 Feb 6.4 17:24:51 10° WSW 17:26:53 12° W 17:28:55 10° WNW visible
